Regional Weather Roundup
Issued by NWS

Home | Current Version | Previous Version | Graphics & Text | Print | Product List | Glossary On
Versions: 1 2 3 4 5 6 7 8 9 10 11 12 13 14 15 16 17 18 19 20 21 22 23 24 25 26 27 28 29 30 31 32 33 34 35 36 37 38 39 40 41 42 43 44 45 46 47 48 49 50
000
ASUS45 KCYS 271110
RWRWY

WYOMING REGIONAL WEATHER ROUNDUP
NATIONAL WEATHER SERVICE CHEYENNE WY
500 AM MDT SUN JUL 27 2014

NOTE:  "FAIR" INDICATES FEW OR NO CLOUDS BELOW 12,000 FEET
WITH NO SIGNIFICANT WEATHER AND/OR OBSTRUCTIONS TO VISIBILITY.

WYZ001-271200-
YELLOWSTONE NATIONAL PARK

CITY           SKY/WX    TMP DP  RH WIND       PRES   REMARKS
LK YELLOWSTONE   N/A     35  30  82 CALM      30.50S
W YELLOWSTONE  NOT AVBL

$$
WYZ002>013-054>058-071-098>099-271200-
NORTHERN WYOMING

CITY           SKY/WX    TMP DP  RH WIND       PRES   REMARKS
JACKSON        CLEAR     43  30  61 N5        30.41R
CODY           NOT AVBL
GREYBULL       CLEAR     57  37  47 CALM      30.28R
WORLAND        CLEAR     51  31  46 S3        30.29R
SHERIDAN       CLEAR     48  41  76 CALM      30.32R
BUFFALO        CLEAR     53  36  52 NW7       30.36S
GILLETTE       CLEAR     45  38  76 CALM      30.33R
HULETT         FAIR      50  43  76 MISG      30.34
NEWCASTLE      FAIR      50  34  53 CALM      30.32

$$
WYZ014>020-022>026-101>103-271200-
CENTRAL WYOMING

CITY           SKY/WX    TMP DP  RH WIND       PRES   REMARKS
BIG PINEY      PTCLDY    40  21  46 E6        30.42S
PINEDALE       SUNNY     36  32  87 W7        30.43S WCI  30
DUBOIS         FAIR      43  27  52 NW9       30.46R
LANDER         CLEAR     59  33  37 W10       30.35R
RIVERTON       CLEAR     59  32  36 NE8       30.36R
CASPER         CLEAR     49  37  63 N10       30.36R
DOUGLAS        CLEAR     52  39  61 CALM      30.35S

$$
WYZ021-027>030-104>119-271200-
SOUTHERN WYOMING

CITY           SKY/WX    TMP DP  RH WIND       PRES   REMARKS
EVANSTON       CLEAR     60  29  30 NE6       30.39S
KEMMERER       SUNNY     50  23  34 N7        30.42R
FORT BRIDGER   FAIR      60  25  25 CALM      30.41S
ROCK SPRINGS   CLEAR     56  29  35 E10       30.39R
DIXON          FAIR      57  44  60 E5        30.38S
RAWLINS        CLEAR     57  32  38 NE8       30.38R
SARATOGA       FAIR      48  41  76 CALM      30.40R
LARAMIE        CLEAR     46  44  93 W6        30.41R
CHEYENNE       CLOUDY    58  54  86 CALM      30.37R
TORRINGTON     PTCLDY    60  42  51 NE3       30.28R
PINE BLUFFS    FAIR      57  55  94 NW3       30.32R

$$



USA.gov is the U.S. government's official web portal to all federal, state and local government web resources and services.